Adams Field Little Rock US
ICAO: KLIT
IATA: LIT
Category: Large
Scheduled Services: Yes

Elevation: 262 ft
TransAlt. 18000 ft.

Airport Communications:
LITTLE ROCK APP/DEP:119.5
ATIS:125.65
CLNC DEL:118.95
GND:121.9
JONESBORO RDO:122.2
TWR:118.7
UNICOM:122.95

KLIT Zoom In..

Runways:

(A) RW 04L length 8273 ft width 150 ft
ILS 110.30 / hdg 45

(B) RW 04R length 8251 ft width 150 ft
ILS 111.30 / hdg 45

(C) RW 18 length 6224 ft width 150 ft
---- / hdg 180

(D) RW 22L length 8251 ft width 150 ft
ILS 110.70 / hdg 225

(E) RW 22R length 8273 ft width 150 ft
ILS 110.30 / hdg 225

(F) RW 36 length 6224 ft width 150 ft
---- / hdg 360

Location; KLIT
Day. 25 / Time. 10.53 Zulu
* Altimeter: 30.04
* Temperature: 12° c. 53.6°f.
* Wind from: 240° Speed 05 kn.
Dewpoint: 12° c.
Visibility: 7 Statute Miles.
Clouds: Scattered 2000 ft.

KLIT 251053Z 24005KT 7SM SCT200 12/12 A3004 RMK AO2 SLP173 T01220122


Wind From 240°
Speed 05 kn.

  YouTube Music Video
 
jpsmedia.com for Web Design  worldairports.se 2018   terms of use